Regional Weather Roundup
Issued by NWS Albany, NY

Home | Current Version | Previous Version | Graphics & Text | Print | Product List | Glossary On
Versions: 1 2 3 4 5 6 7 8 9 10 11 12 13 14 15 16 17 18 19 20 21 22 23 24 25 26 27
000
ASUS41 KALY 242310
RWRALY

NEW YORK STATE HOURLY WEATHER ROUNDUP
NATIONAL WEATHER SERVICE ALBANY NY
700 PM EDT MON APR 24 2017

NOTE: "FAIR" INDICATES FEW OR NO CLOUDS BELOW 12,000 FEET WITH NO
SIGNIFICANT WEATHER AND/OR NO OBSTRUCTIONS TO VISIBILITY.

NYZ032-033-038>043-046>054-057>066-NYZ062>081-082-084-250000-
EAST


CITY           SKY/WX    TMP DP  RH WIND       PRES   REMARKS
ALBANY         MOCLDY    70  35  27 NE9       30.08F
GLENS FALLS    CLEAR     59  36  42 NE12      30.13S
POUGHKEEPSIE   CLOUDY    63  35  35 SE5       30.11S
NEWBURGH       MOCLDY    63  39  42 VRB6      30.13S
MONTGOMERY     CLOUDY    62  38  40 SE5       30.11S
WHITE PLAINS   LGT RAIN  53  42  66 E7        30.14R
ISLIP          CLOUDY    54  39  57 E7        30.15S
NEW YORK CITY  CLOUDY    58  44  60 NE7       30.13S
CENTRAL PARK   CLOUDY    57  43  59 VRB3      30.16S
$$

NYZ005>009-017-018-044>046-055-056-250000-
CENTRAL


CITY           SKY/WX    TMP DP  RH WIND       PRES   REMARKS
FULTON         CLEAR     61  38  42 N12       30.08F
SYRACUSE       CLOUDY    65  42  43 NW10      30.05F
ROME           CLEAR     68  40  35 N12       30.06F
ELMIRA         MOCLDY    68  46  45 NE7       30.03R
BINGHAMTON     CLOUDY    64  31  28 S8G17     30.05S
MONTICELLO     CLOUDY    59  34  38 SE9       30.13S
$$

NYZ026>034-041>043-087-250000-
NORTH


CITY           SKY/WX    TMP DP  RH WIND       PRES   REMARKS
WATERTOWN      CLEAR     55  36  48 NE15      30.14S
FORT DRUM      NOT AVBL
OGDENSBURG     FAIR      51  31  46 NE7       30.20S
MASSENA        PTCLDY    49  27  42 NE10      30.23F
SARANAC LAKE   CLEAR     52  32  46 NE10      30.15S
PLATTSBURGH    CLEAR     47  26  44 N8        30.24S
$$

NYZ001>004-010>016-019>021-085-250000-
WEST


CITY           SKY/WX    TMP DP  RH WIND       PRES   REMARKS
NIAGARA FALLS  SUNNY     57  38  48 E18       30.03F
BUFFALO        PTSUNNY   56  38  50 NE15      30.02F
DUNKIRK        SUNNY     58  42  55 NE17G28   29.96F
JAMESTOWN      SUNNY     70  25  18 S15       29.97S
WELLSVILLE     SUNNY     66  25  21 SE12G20   30.04R
ROCHESTER      PTSUNNY   53  35  50 NE15      30.09S
PENN YAN       SUNNY     60  41  49 VRB6      30.06F
$$

             KEY
       WCI = WIND CHILL INDEX
       VSB = VISIBILITY
       HX  = HEAT INDEX
$$




USA.gov is the U.S. government's official web portal to all federal, state and local government web resources and services.